Location: Philomena
(55.1756°N, 111.6233°W)
Time: 09:54:55
(UTC+00:00)

PCSat - Pass Details

Date: 12 December 2023
Orbit: 784 x 791 km, 67.0° (Epoch: 23 February)

Event Time Altitude Azimuth Distance (km) Brightness Sun altitude
Exits shadow 12:17:14 34° 3° (N) 1,287 10.6 -27.6°
Drops below altitude 10° 12:20:57 10° 38° (NE) 2,365 12.4 -27.1°
Sets 12:23:32 0° 46° (NE) 3,298 13.4 -26.8°
